VU2FI-13 Weather Reports


time (UTC)temp
F
wind
direction
speed
knots
gust
knots
rain 1hr
in
rain 24hr
in
rain mn
in
humidity
%
barometer
mb
20260504210502 92 0.0 0.0 0.00 0.00 0.00 42 912.0
20260504205502 92 0.0 0.0 0.00 0.00 0.00 42 912.0
20260504204502 92 0.0 0.0 0.00 0.00 0.00 43 911.0
20260504203502 92 0.0 0.0 0.00 0.00 0.00 42 911.0
20260504202502 92 0.0 0.0 0.00 0.00 0.00 42 911.0
20260504201502 92 0.0 0.0 0.00 0.00 0.00 42 911.0
20260504200502 92 0.0 0.0 0.00 0.00 0.00 42 911.0
20260504195502 92 0.0 0.0 0.00 0.00 0.00 42 911.0
20260504194502 92 0.0 0.0 0.00 0.00 0.00 42 911.0
20260504193502 92 0.0 0.0 0.00 0.00 0.00 42 911.0
20260504192502 92 0.0 0.0 0.00 0.00 0.00 42 911.0
20260504191502 92 0.0 0.0 0.00 0.00 0.00 42 911.0
20260504190502 92 0.0 0.0 0.00 0.00 0.00 42 911.0
20260504185502 92 0.0 0.0 0.00 0.00 0.00 42 911.0
20260504184502 92 0.0 0.0 0.00 0.00 0.00 42 912.0
20260504183502 92 0.0 0.0 0.00 0.00 0.00 42 912.0
20260504182502 92 0.0 0.0 0.00 0.00 0.00 42 912.0
20260504181502 92 0.0 0.0 0.00 0.00 0.00 42 912.0
20260504180502 92 0.0 0.0 0.00 0.00 0.00 42 912.0
20260504175502 92 0.0 0.0 0.00 0.00 0.00 41 912.0
20260504174502 92 0.0 0.0 0.00 0.00 0.00 42 912.0
20260504173502 92 0.0 0.0 0.00 0.00 0.00 42 912.0
20260504172502 92 0.0 0.0 0.00 0.00 0.00 42 912.0
20260504171502 91 0.0 0.0 0.00 0.00 0.00 43 912.0
20260504170502 91 0.0 0.0 0.00 0.00 0.00 44 912.0
20260504150502 91 0.0 0.0 0.00 0.00 0.00 45 911.0
20260504140502 91 0.0 0.0 0.00 0.00 0.00 45 911.0
20260504130501 91 0.0 0.0 0.00 0.00 0.00 44 909.0
20260504110501 91 0.0 0.0 0.00 0.00 0.00 41 908.0
20260504100501 91 0.0 0.0 0.00 0.00 0.00 42 908.0
20260504081501 89 0.0 0.0 0.00 0.00 0.00 47 910.0
20260504080501 89 0.0 0.0 0.00 0.00 0.00 47 910.0
20260504050501 90 0.0 0.0 0.00 0.00 0.00 51 913.0
20260504045502 90 0.0 0.0 0.00 0.00 0.00 51 913.0
20260504044501 90 0.0 0.0 0.00 0.00 0.00 52 913.0
20260504043501 90 0.0 0.0 0.00 0.00 0.00 52 913.0
20260504042501 89 0.0 0.0 0.00 0.00 0.00 53 913.0
20260504041501 89 0.0 0.0 0.00 0.00 0.00 53 913.0
20260504040501 89 0.0 0.0 0.00 0.00 0.00 53 913.0
20260504035501 89 0.0 0.0 0.00 0.00 0.00 53 913.0
20260504034501 89 0.0 0.0 0.00 0.00 0.00 53 913.0
20260504033501 89 0.0 0.0 0.00 0.00 0.00 53 913.0
20260504032501 88 0.0 0.0 0.00 0.00 0.00 54 913.0
20260504031756 87 0.0 0.0 0.00 0.00 0.00 53 913.0
20260504030249 89 0.0 0.0 0.00 0.00 0.00 52 913.0
20260504025249 89 0.0 0.0 0.00 0.00 0.00 51 913.0
20260504024249 89 0.0 0.0 0.00 0.00 0.00 51 912.0
20260504023249 89 0.0 0.0 0.00 0.00 0.00 51 912.0
20260504022249 89 0.0 0.0 0.00 0.00 0.00 50 912.0
20260504021249 89 0.0 0.0 0.00 0.00 0.00 49 912.0
20260504020249 90 0.0 0.0 0.00 0.00 0.00 48 912.0
20260504015249 90 0.0 0.0 0.00 0.00 0.00 48 912.0
20260504014249 90 0.0 0.0 0.00 0.00 0.00 48 912.0
20260504013249 90 0.0 0.0 0.00 0.00 0.00 49 912.0
20260504012249 90 0.0 0.0 0.00 0.00 0.00 48 912.0
20260504011249 90 0.0 0.0 0.00 0.00 0.00 48 912.0
20260504010249 90 0.0 0.0 0.00 0.00 0.00 47 912.0
20260504005249 90 0.0 0.0 0.00 0.00 0.00 47 912.0
20260504004249 90 0.0 0.0 0.00 0.00 0.00 47 912.0
20260504003249 90 0.0 0.0 0.00 0.00 0.00 48 912.0
20260504002249 91 0.0 0.0 0.00 0.00 0.00 49 912.0
20260504001249 91 0.0 0.0 0.00 0.00 0.00 49 912.0
20260504000249 91 0.0 0.0 0.00 0.00 0.00 49 912.0
20260503235249 91 0.0 0.0 0.00 0.00 0.00 49 912.0
20260503234249 90 0.0 0.0 0.00 0.00 0.00 49 911.0
20260503233249 91 0.0 0.0 0.00 0.00 0.00 49 911.0
20260503232249 91 0.0 0.0 0.00 0.00 0.00 48 911.0
20260503231249 91 0.0 0.0 0.00 0.00 0.00 48 911.0
20260503230249 91 0.0 0.0 0.00 0.00 0.00 48 911.0
20260503225249 91 0.0 0.0 0.00 0.00 0.00 48 911.0
20260503224249 91 0.0 0.0 0.00 0.00 0.00 48 911.0
20260503223249 91 0.0 0.0 0.00 0.00 0.00 48 911.0
20260503222249 91 0.0 0.0 0.00 0.00 0.00 48 911.0
20260503221249 91 0.0 0.0 0.00 0.00 0.00 48 910.0
20260503220249 91 0.0 0.0 0.00 0.00 0.00 48 910.0
20260503215249 91 0.0 0.0 0.00 0.00 0.00 48 910.0
20260503214249 91 0.0 0.0 0.00 0.00 0.00 48 910.0
20260503213249 91 0.0 0.0 0.00 0.00 0.00 48 910.0
20260503212249 91 0.0 0.0 0.00 0.00 0.00 48 910.0
20260503211249 91 0.0 0.0 0.00 0.00 0.00 48 910.0